TimeEDT,TemperatureF,Dew PointF,Humidity,Sea Level PressureIn,VisibilityMPH,Wind Direction,Wind SpeedMPH,Gust SpeedMPH,PrecipitationIn,Events,Conditions,WindDirDegrees,DateUTC
12:51 AM,37.0,34.0,89,29.52,10.0,NW,26.5,41.4,0.01,Snow,Light Snow,320,2012-10-30 04:51:00
1:51 AM,36.0,33.1,89,29.50,10.0,NW,21.9,41.4,0.00,Snow,Light Snow,320,2012-10-30 05:51:00
2:37 AM,35.6,33.8,93,29.45,8.0,NW,28.8,39.1,0.00,Snow,Light Snow,320,2012-10-30 06:37:00
2:51 AM,35.6,33.8,93,29.44,8.0,NW,24.2,39.1,N/A,Snow,Light Snow,320,2012-10-30 06:51:00
3:00 AM,35.6,33.8,93,29.43,9.0,NW,24.2,42.6,0.00,Snow,Light Snow,310,2012-10-30 07:00:00
3:41 AM,35.6,33.8,93,29.41,8.0,NW,27.6,38.0,0.00,Snow,Light Snow,310,2012-10-30 07:41:00
3:51 AM,35.1,33.1,92,29.42,9.0,NW,23.0,39.1,0.00,Snow,Light Snow,320,2012-10-30 07:51:00
4:51 AM,35.1,33.1,92,29.40,7.0,NW,24.2,38.0,0.00,Snow,Light Snow,320,2012-10-30 08:51:00
5:37 AM,35.6,33.8,93,29.38,5.0,NW,25.3,35.7,0.00,Snow,Light Snow,320,2012-10-30 09:37:00
5:51 AM,35.6,33.8,93,29.38,5.0,NW,28.8,38.0,N/A,Snow,Light Snow,320,2012-10-30 09:51:00
6:51 AM,35.6,33.8,93,29.36,7.0,NW,31.1,43.7,N/A,Snow,Light Snow,320,2012-10-30 10:51:00
7:13 AM,33.8,33.8,100,29.36,2.0,NW,26.5,35.7,0.00,Snow,Light Snow,320,2012-10-30 11:13:00
7:20 AM,33.8,33.8,100,29.36,1.8,NW,25.3,36.8,0.00,Snow,Light Snow,320,2012-10-30 11:20:00
7:26 AM,33.8,33.8,100,29.35,1.2,NW,25.3,36.8,0.00,Snow,Light Snow,320,2012-10-30 11:26:00
7:46 AM,33.8,33.8,100,29.35,2.0,NW,23.0,35.7,0.04,Snow,Light Snow,320,2012-10-30 11:46:00
7:47 AM,34.0,33.1,96,29.37,2.0,NW,24.2,35.7,0.04,Snow,Light Snow,320,2012-10-30 11:47:00
7:49 AM,33.8,33.8,100,29.35,2.0,NW,21.9,35.7,0.00,Snow,Light Snow,320,2012-10-30 11:49:00
7:59 AM,33.8,33.8,100,29.35,8.0,NW,20.7,38.0,0.00,Snow,Light Snow,320,2012-10-30 11:59:00
8:14 AM,35.6,33.8,93,29.35,10.0,NW,24.2,32.2,0.01,Snow,Light Snow,320,2012-10-30 12:14:00
8:51 AM,35.6,33.8,93,29.35,8.0,NW,20.7,34.5,N/A,Rain,Light Rain,320,2012-10-30 12:51:00
9:51 AM,36.0,33.1,89,29.35,8.0,NW,23.0,38.0,0.00,Rain,Light Rain,320,2012-10-30 13:51:00
10:27 AM,35.6,33.8,93,29.35,10.0,NNW,24.2,34.5,0.00,Rain-Snow,Light Snow,330,2012-10-30 14:27:00
10:51 AM,37.4,33.8,87,29.34,10.0,NW,23.0,36.8,N/A,Rain,Light Rain,320,2012-10-30 14:51:00
11:51 AM,37.0,35.1,93,29.37,8.0,NNW,19.6,34.5,0.00,,Light Drizzle,330,2012-10-30 15:51:00
12:51 PM,37.9,36.0,93,29.37,7.0,NW,21.9,29.9,0.00,,Overcast,310,2012-10-30 16:51:00
1:51 PM,37.9,36.0,93,29.38,9.0,NW,21.9,26.5,N/A,,Overcast,320,2012-10-30 17:51:00
2:51 PM,37.4,37.4,100,29.38,6.0,NW,21.9,26.5,N/A,,Overcast,320,2012-10-30 18:51:00
3:51 PM,39.0,37.0,93,29.42,8.0,NW,18.4,26.5,0.00,Rain,Light Rain,320,2012-10-30 19:51:00
4:51 PM,39.0,37.0,93,29.43,4.0,WNW,18.4,27.6,0.00,Rain,Light Ice Pellets,300,2012-10-30 20:51:00
5:06 PM,39.2,37.4,93,29.42,5.0,WNW,17.3,24.2,0.00,Rain,Light Rain,300,2012-10-30 21:06:00
5:51 PM,39.0,37.9,96,29.46,5.0,WNW,18.4,25.3,0.01,Rain,Light Rain,300,2012-10-30 21:51:00
6:51 PM,39.0,37.0,93,29.49,8.0,NW,18.4,26.5,0.02,Rain,Light Rain,310,2012-10-30 22:51:00
7:51 PM,39.0,37.9,96,29.51,7.0,NW,18.4,26.5,0.00,Rain,Light Rain,310,2012-10-30 23:51:00
8:38 PM,39.2,37.4,93,29.51,10.0,NW,15.0,20.7,0.00,Rain,Light Rain,310,2012-10-31 00:38:00
8:51 PM,39.2,37.4,93,29.51,10.0,WNW,13.8,-,N/A,Rain,Light Rain,300,2012-10-31 00:51:00
9:51 PM,39.0,37.9,96,29.54,5.0,NW,18.4,27.6,0.01,Rain,Light Rain,310,2012-10-31 01:51:00
10:00 PM,39.2,37.4,93,29.52,7.0,WNW,13.8,27.6,0.00,Rain,Light Rain,300,2012-10-31 02:00:00
10:51 PM,39.0,37.9,96,29.55,10.0,WNW,17.3,25.3,0.03,Rain,Light Rain,300,2012-10-31 02:51:00
11:51 PM,39.2,37.4,93,29.53,10.0,WNW,10.4,19.6,N/A,Rain,Light Rain,300,2012-10-31 03:51:00